Location: Bronnegerveen
(52.9548°N, 6.8388°E)
Time: 02:34:46
(UTC+00:00)

MSX - Pass Details

Date: 15 June 2025
Orbit: 893 x 905 km, 99.0° (Epoch: 06 July)

Event Time Altitude Azimuth Distance (km) Brightness Sun altitude
Rises 01:20:37 0° 17° (NNE) 3,530 9.0 -10.2°
Reaches altitude 10° 01:23:02 10° 19° (NNE) 2,583 7.8 -10.1°
Maximum altitude 01:28:48 74° 104° (ESE) 937 4.0 -9.7°
Drops below altitude 10° 01:34:30 10° 190° (S) 2,560 5.6 -9.3°
Enters shadow 01:34:31 10° 190° (S) 2,565 5.6 -9.3°
